De Queen, AR

3:47 AM CST on January 29, 2020 (GMT -0600)
Helms Sevier County

Weather History for KDEQ - October, 2019

Change the Weather History Date:

Monday, October 14, 2019

  Actual Average Record
Temperature  
Mean Temperature 60 °F 64 °F  
Max Temperature 73 °F 77 °F 94 °F (1938)
Min Temperature 48 °F 51 °F 31 °F (1977)
Degree Days  
Heating Degree Days 4 3  
Month to date heating degree days 34  
Since 1 July heating degree days 43  
Cooling Degree Days 0 2  
Month to date cooling degree days 42  
Year to date cooling degree days 1907  
Growing Degree Days 10 (Base 50)    
Moisture  
Dew Point 53 °F    
Average Humidity 72    
Maximum Humidity 93    
Minimum Humidity 49    
Precipitation  
Precipitation 0.00 in 0.15 in 1.62 in (1981)
Month to date precipitation 2.05  
Year to date precipitation 37.25  
Snow  
Snow - - - ()
Month to date snowfall  
Since 1 July snowfall  
Since 1 September snowfall  
Snow Depth -    
Sea Level Pressure  
Sea Level Pressure 30.01 in    
Wind  
Wind Speed 3 mph ()    
Max Wind Speed 8 mph    
Max Gust Speed -    
Visibility 9.8 miles    
Events      
T = Trace of Precipitation, MM = Missing Value Source: Averaged Metar Reports

Daily Weather History Graph

Daily Weather History Graph

Search for Another Location

Airport or City:

Astronomy

Oct. 14, 2019 Rise Set
Actual Time 7:21 AM CDT 6:44 PM CDT
Civil Twilight 6:56 AM CDT 7:10 PM CDT
Nautical Twilight 6:27 AM CDT 7:39 PM CDT
Astronomical Twilight 5:58 AM CDT 8:08 PM CDT
Moon 7:36 PM CDT (10/14) 7:55 AM CDT (10/14)
Length of Visible Light 12h 13m
Length of Day
11h 23m
Full, 99% of the Moon is Illuminated
Oct 14
Full
Oct 21
Last Quarter
Oct 27
New
Nov 4
First Quarter
Nov 12
Full

Hourly Weather History & Observations

Time (CDT) Temp. Dew Point Humidity Pressure Visibility Wind Dir Wind Speed Gust Speed Precip Events Conditions
12:53 AM 48.9 °F 46.0 °F 90% 30.03 in 8.0 mi ENE 3.5 mph - N/A   Clear
1:53 AM 48.9 °F 46.9 °F 93% 30.04 in 9.0 mi Calm Calm - N/A   Clear
2:53 AM 50.0 °F 46.9 °F 89% 30.05 in 9.0 mi Calm Calm - N/A   Clear
3:53 AM 50.0 °F 46.9 °F 89% 30.03 in 10.0 mi East 3.5 mph - N/A   Clear
4:53 AM 50.0 °F 48.0 °F 93% 30.03 in 10.0 mi ENE 3.5 mph - N/A   Clear
5:53 AM 51.1 °F 48.0 °F 89% 30.04 in 10.0 mi Calm Calm - N/A   Clear
6:53 AM 51.1 °F 48.0 °F 89% 30.05 in 10.0 mi Calm Calm - N/A   Clear
7:53 AM 52.0 °F 48.9 °F 89% 30.05 in 10.0 mi Calm Calm - N/A   Clear
8:53 AM 57.0 °F 52.0 °F 83% 30.06 in 10.0 mi Calm Calm - N/A   Clear
9:53 AM 61.0 °F 51.1 °F 70% 30.07 in 10.0 mi East 4.6 mph - N/A   Clear
10:53 AM 64.0 °F 52.0 °F 65% 30.05 in 10.0 mi East 4.6 mph - N/A   Clear
11:53 AM 66.9 °F 53.1 °F 61% 30.05 in 10.0 mi ENE 6.9 mph - N/A   Clear
12:53 PM 70.0 °F 53.1 °F 55% 30.03 in 10.0 mi East 8.1 mph - N/A   Clear
1:53 PM 71.1 °F 53.1 °F 53% 30.00 in 10.0 mi ESE 3.5 mph - N/A   Partly Cloudy
2:31 PM 73.0 °F 54.0 °F 51% 29.99 in 10.0 mi East 4.6 mph - N/A   Mostly Cloudy
2:53 PM 73.0 °F 53.1 °F 49% 29.98 in 10.0 mi ESE 4.6 mph - N/A   Mostly Cloudy
3:53 PM 73.0 °F 55.0 °F 53% 29.98 in 10.0 mi ESE 5.8 mph - N/A   Partly Cloudy
4:53 PM 72.0 °F 57.0 °F 59% 29.97 in 10.0 mi ESE 3.5 mph - N/A   Mostly Cloudy
5:53 PM 71.1 °F 55.0 °F 57% 29.96 in 10.0 mi ESE 5.8 mph - N/A   Overcast
6:53 PM 69.1 °F 57.0 °F 65% 29.97 in 10.0 mi East 3.5 mph - N/A   Overcast
7:53 PM 69.1 °F 57.0 °F 65% 29.96 in 10.0 mi East 3.5 mph - N/A   Overcast
8:53 PM 68.0 °F 57.0 °F 68% 29.98 in 10.0 mi East 5.8 mph - N/A   Overcast
9:21 PM 68.0 °F 57.9 °F 70% 29.99 in 10.0 mi NE 4.6 mph - N/A   Overcast
9:53 PM 66.9 °F 57.9 °F 73% 29.99 in 10.0 mi East 4.6 mph - N/A   Overcast
10:53 PM 66.9 °F 60.1 °F 79% 29.98 in 10.0 mi East 3.5 mph - N/A   Overcast
11:53 PM 66.0 °F 61.0 °F 84% 29.97 in 10.0 mi East 3.5 mph - N/A   Overcast